Pineville, WV

12:15 AM EST on December 10, 2019 (GMT -0500)
Pineville

Weather History for KI16 - October, 2019

Change the Weather History Date:

Tuesday, October 1, 2019

  Actual Average (KBKW) Record (KBKW)
Temperature  
Mean Temperature 80 °F -  
Max Temperature 95 °F 65 °F 85 °F (1941)
Min Temperature 65 °F 47 °F 27 °F (1930)
Cooling Degree Days 15    
Growing Degree Days 30 (Base 50)    
Moisture  
Dew Point 64 °F    
Average Humidity 69    
Maximum Humidity 94    
Minimum Humidity 29    
Precipitation  
Precipitation 0.00 in - - ()
Sea Level Pressure  
Sea Level Pressure 30.18 in    
Wind  
Wind Speed - (North)    
Max Wind Speed -    
Max Gust Speed -    
Visibility 10 miles    
Events      
Averages and records for this station are not official NWS values.
T = Trace of Precipitation, MM = Missing Value Source: NWS Daily Summary

Daily Weather History Graph

Daily Weather History Graph

Search for Another Location

Airport or City:

Astronomy

Oct. 01, 2019 Rise Set
Actual Time 7:21 AM EDT 7:09 PM EDT
Civil Twilight 6:55 AM EDT 7:35 PM EDT
Nautical Twilight 6:25 AM EDT 8:06 PM EDT
Astronomical Twilight 5:54 AM EDT 8:36 PM EDT
Moon 10:32 AM EDT (10/1) 9:25 PM EDT (10/1)
Length of Visible Light 12h 40m
Length of Day
11h 48m
Waxing Crescent, 12% of the Moon is Illuminated
Oct 1
Waxing Crescent
Oct 5
First Quarter
Oct 13
Full
Oct 21
Last Quarter
Oct 27
New

Hourly Weather History & Observations

Time (EDT) Temp. Heat Index Dew Point Humidity Pressure Visibility Wind Dir Wind Speed Gust Speed Precip Events Conditions
12:15 AM 68.5 °F - 63.3 °F 83% 30.21 in 10.0 mi North - - N/A   Clear
12:35 AM 68.2 °F - 64.2 °F 87% 30.21 in 10.0 mi North - - N/A   Clear
12:55 AM 67.6 °F - 63.7 °F 87% 30.21 in 10.0 mi North - - N/A   Clear
1:15 AM 67.3 °F - 64.0 °F 89% 30.20 in 10.0 mi North - - N/A   Clear
1:35 AM 67.1 °F - 63.7 °F 89% 30.20 in 10.0 mi North - - N/A   Clear
1:55 AM 67.1 °F - 63.7 °F 89% 30.20 in 10.0 mi North - - N/A   Clear
2:15 AM 66.7 °F - 64.2 °F 92% 30.21 in 10.0 mi North - - N/A   Clear
2:35 AM 66.9 °F - 63.3 °F 88% 30.20 in 10.0 mi North - - N/A   Clear
2:55 AM 67.1 °F - 63.9 °F 89% 30.20 in 10.0 mi North - - N/A   Mostly Cloudy
3:15 AM 67.1 °F - 64.4 °F 91% 30.20 in 10.0 mi North - - N/A   Overcast
3:35 AM 66.7 °F - 64.4 °F 92% 30.19 in 10.0 mi North - - N/A   Mostly Cloudy
3:55 AM 66.4 °F - 64.0 °F 92% 30.19 in 10.0 mi North - - N/A   Scattered Clouds
4:15 AM 66.4 °F - 63.9 °F 92% 30.20 in 10.0 mi North - - N/A   Scattered Clouds
4:35 AM 66.2 °F - 63.9 °F 92% 30.20 in 10.0 mi North - - N/A   Scattered Clouds
4:55 AM 66.4 °F - 64.4 °F 93% 30.20 in 10.0 mi North - - N/A   Mostly Cloudy
5:15 AM 66.4 °F - 63.9 °F 92% 30.21 in 10.0 mi North - - N/A   Scattered Clouds
5:35 AM 66.2 °F - 63.7 °F 92% 30.21 in 10.0 mi North - - N/A   Clear
5:55 AM 65.7 °F - 63.9 °F 94% 30.21 in 7.0 mi North - - N/A   Clear
6:15 AM 65.3 °F - 63.5 °F 94% 30.21 in 7.0 mi North - - N/A   Clear
6:35 AM 65.3 °F - 63.5 °F 94% 30.22 in 7.0 mi North - - N/A   Clear
6:55 AM 65.7 °F - 63.5 °F 93% 30.22 in 10.0 mi North - - N/A   Mostly Cloudy
7:15 AM 65.5 °F - 63.7 °F 94% 30.23 in 7.0 mi North - - N/A   Mostly Cloudy
7:35 AM 65.7 °F - 63.9 °F 94% 30.23 in 7.0 mi North - - N/A   Mostly Cloudy
7:55 AM 66.4 °F - 64.4 °F 93% 30.23 in 10.0 mi North - - N/A   Overcast
8:15 AM 67.3 °F - 64.9 °F 92% 30.23 in 7.0 mi North - - N/A   Mostly Cloudy
8:35 AM 68.0 °F - 65.5 °F 92% 30.24 in 10.0 mi North - - N/A   Mostly Cloudy
8:55 AM 70.2 °F - 65.7 °F 86% 30.24 in 10.0 mi North - - N/A   Mostly Cloudy
9:15 AM 71.6 °F - 66.2 °F 83% 30.24 in 10.0 mi North - - N/A   Scattered Clouds
9:35 AM 71.2 °F - 67.1 °F 87% 30.24 in 10.0 mi North - - N/A   Scattered Clouds
9:55 AM 76.3 °F - 67.3 °F 74% 30.24 in 10.0 mi North - - N/A   Clear
10:15 AM 79.5 °F - 68.0 °F 68% 30.24 in 10.0 mi North - - N/A   Clear
10:35 AM 80.1 °F 82.6 °F 67.6 °F 66% 30.24 in 10.0 mi North - - N/A   Clear
10:55 AM 83.3 °F 86.4 °F 68.0 °F 60% 30.23 in 10.0 mi North - - N/A   Mostly Cloudy
11:15 AM 83.5 °F 86.2 °F 67.5 °F 58% 30.23 in 10.0 mi North - - N/A   Mostly Cloudy
11:35 AM 85.3 °F 88.2 °F 67.5 °F 55% 30.23 in 10.0 mi North - - N/A   Scattered Clouds
11:55 AM 87.8 °F 90.7 °F 66.9 °F 50% 30.22 in 10.0 mi North - - N/A   Mostly Cloudy
12:15 PM 87.8 °F 90.7 °F 67.1 °F 50% 30.21 in 10.0 mi North - - N/A   Mostly Cloudy
12:35 PM 88.9 °F 91.4 °F 66.6 °F 47% 30.21 in 10.0 mi North - - N/A   Scattered Clouds
12:55 PM 89.4 °F 91.5 °F 65.5 °F 45% 30.21 in 10.0 mi North - - N/A   Clear
1:15 PM 91.2 °F 92.5 °F 63.9 °F 40% 30.20 in 10.0 mi North - - N/A   Clear
1:35 PM 91.8 °F 93.0 °F 63.7 °F 39% 30.19 in 10.0 mi North - - N/A   Clear
1:55 PM 92.5 °F 92.2 °F 60.4 °F 34% 30.18 in 10.0 mi North - - N/A   Clear
2:15 PM 93.6 °F 93.8 °F 61.0 °F 34% 30.17 in 10.0 mi North - - N/A   Clear
2:35 PM 93.9 °F 93.6 °F 59.7 °F 32% 30.16 in 10.0 mi North - - N/A   Clear
2:55 PM 93.7 °F 93.0 °F 58.6 °F 31% 30.15 in 10.0 mi North - - N/A   Clear
3:15 PM 93.9 °F 93.2 °F 59.0 °F 31% 30.15 in 10.0 mi North - - N/A   Scattered Clouds
3:35 PM 95.0 °F 94.8 °F 59.9 °F 31% 30.14 in 10.0 mi North - - N/A   Mostly Cloudy
4:00 PM 93.9 °F 93.6 °F 59.5 °F 32% 30.14 in 10.0 mi North - - N/A   Scattered Clouds
4:15 PM 94.3 °F 93.4 °F 58.5 °F 30% 30.14 in 10.0 mi North - - N/A   Scattered Clouds
4:35 PM 95.0 °F 94.0 °F 58.5 °F 29% 30.14 in 10.0 mi North - - N/A   Mostly Cloudy
4:55 PM 93.7 °F 93.0 °F 58.6 °F 31% 30.13 in 10.0 mi North - - N/A   Scattered Clouds
5:15 PM 94.3 °F 93.4 °F 58.3 °F 30% 30.13 in 10.0 mi North - - N/A   Clear
5:55 PM 89.6 °F 89.5 °F 60.6 °F 38% 30.13 in 10.0 mi North - - N/A   Clear
6:15 PM 86.5 °F 87.0 °F 62.2 °F 44% 30.13 in 10.0 mi North - - N/A   Clear
6:35 PM 83.3 °F 84.3 °F 62.8 °F 50% 30.13 in 10.0 mi North - - N/A   Clear
6:55 PM 81.3 °F 82.7 °F 63.5 °F 55% 30.13 in 10.0 mi North - - N/A   Clear
7:15 PM 80.1 °F 81.5 °F 63.1 °F 56% 30.13 in 10.0 mi North - - N/A   Clear
7:35 PM 78.3 °F - 63.7 °F 61% 30.13 in 10.0 mi North - - N/A   Clear
7:55 PM 77.2 °F - 64.0 °F 64% 30.13 in 10.0 mi North - - N/A   Clear
8:15 PM 76.1 °F - 63.3 °F 64% 30.13 in 10.0 mi North - - N/A   Clear
8:35 PM 74.8 °F - 63.7 °F 68% 30.14 in 10.0 mi North - - N/A   Clear
8:55 PM 73.6 °F - 63.5 °F 71% 30.14 in 10.0 mi North - - N/A   Clear
9:15 PM 72.7 °F - 63.5 °F 73% 30.14 in 10.0 mi North - - N/A   Clear
9:35 PM 72.1 °F - 63.3 °F 74% 30.14 in 10.0 mi North - - N/A   Clear
9:55 PM 72.3 °F - 63.1 °F 73% 30.14 in 7.0 mi North - - N/A   Clear
10:15 PM 71.2 °F - 63.3 °F 76% 30.14 in 10.0 mi North - - N/A   Clear
10:35 PM 70.5 °F - 63.0 °F 77% 30.13 in 10.0 mi North - - N/A   Clear
10:55 PM 70.0 °F - 63.1 °F 79% 30.13 in 10.0 mi North - - N/A   Clear
11:15 PM 69.8 °F - 63.0 °F 79% 30.13 in 10.0 mi North - - N/A   Clear
11:35 PM 68.9 °F - 63.0 °F 81% 30.12 in 10.0 mi North - - N/A   Clear
11:55 PM 68.5 °F - 62.8 °F 82% 30.12 in 10.0 mi North - - N/A   Clear